Theta_e
275 275 275 275 275 274 275 275 275 275 275 275 274 273 272 273 271 268 267 269 270 271 273 273 273 273 273 273 274 274 273 275 277 275 274 274 273 277 282 285 286 286 288 288 287 288 288 288 289 289 289 290 291 291 291 291 291 291 292 293 294 293 294 294 293 294 293 294 294 293 294 294 294 295
275 275 275 274 274 274 274 274 274 274 274 274 274 273 274 273 271 271 269 269 272 271 272 273 271 272 273 274 274 274 273 277 277 275 274 273 273 280 282 282 284 285 287 287 287 288 288 288 288 289 289 290 290 290 290 290 290 291 292 292 293 293 293 293 293 293 292 293 294 294 294 294 294 294
275 274 273 273 273 273 273 273 274 274 274 274 273 273 273 274 272 272 272 267 270 273 271 272 273 272 272 273 273 273 273 275 276 274 274 273 277 279 278 279 281 283 284 285 286 287 288 288 288 288 288 289 289 290 290 289 290 291 291 292 291 292 291 292 292 292 292 292 292 293 293 294 294 295
274 273 273 273 273 273 273 272 273 273 274 273 273 272 273 272 272 272 271 270 270 272 271 271 272 272 272 272 272 272 273 275 277 274 274 274 277 275 274 278 280 281 283 284 286 287 288 288 288 288 288 288 289 289 289 289 290 289 290 291 292 292 291 291 290 291 290 291 291 292 292 292 293 293
273 273 273 272 272 272 272 272 272 272 272 272 272 272 271 271 271 271 270 269 269 271 273 271 272 272 272 271 272 272 272 273 273 275 274 274 273 274 274 274 278 280 282 284 285 286 287 287 287 287 287 287 288 288 289 289 289 289 289 289 290 290 290 290 290 290 289 290 290 290 291 291 292 292
273 273 272 272 272 272 272 272 272 272 272 271 271 271 271 270 270 271 269 269 268 268 271 271 272 271 272 271 272 272 272 272 273 273 273 274 274 274 274 274 274 279 281 283 284 285 286 286 287 287 286 287 288 289 288 287 287 287 288 288 287 288 288 289 288 288 288 289 290 290 291 291 292 292
272 271 271 271 271 271 271 271 271 271 271 271 271 271 271 270 270 271 271 269 267 267 268 271 269 270 271 271 271 272 273 273 273 273 273 274 274 275 275 274 275 279 281 283 284 284 284 284 285 285 285 285 286 286 286 286 286 286 286 286 286 286 286 286 287 287 287 288 290 290 290 290 291 292
272 271 271 271 271 271 270 270 270 271 271 271 270 270 270 270 270 270 270 271 270 267 267 268 269 271 270 271 272 273 273 273 273 273 274 274 274 274 275 274 274 277 281 281 281 282 282 282 283 283 284 284 284 285 285 285 285 285 285 285 285 284 285 285 285 286 286 287 287 289 290 290 288 290
272 271 271 271 270 270 270 269 269 270 269 270 270 269 270 270 270 270 271 270 270 268 267 268 270 271 271 272 272 273 272 273 273 273 273 273 274 274 274 275 276 278 279 279 279 279 280 280 281 282 282 283 284 284 284 284 284 284 283 283 283 284 284 284 285 285 286 287 287 287 288 290 289 288
271 271 271 271 270 270 270 270 270 269 269 269 269 269 269 269 269 269 270 270 270 269 268 268 268 269 270 270 272 273 273 272 271 272 273 272 273 273 273 274 275 274 274 273 274 276 277 278 279 279 280 282 282 282 283 283 283 282 281 282 282 283 284 284 285 285 286 285 286 286 286 288 289 289
271 271 271 271 271 271 271 270 270 269 269 269 268 269 269 269 268 268 268 269 269 269 268 268 269 269 270 272 271 273 273 273 272 271 270 270 272 273 272 272 273 273 273 275 276 276 276 277 275 277 279 280 280 281 282 282 281 280 281 282 282 283 284 284 284 284 284 285 285 286 286 285 287 287
271 271 271 271 271 271 271 271 270 270 269 269 269 269 269 269 269 268 267 268 268 267 266 267 267 269 271 272 274 274 273 271 271 272 270 269 270 271 272 271 270 272 272 271 271 273 273 273 274 276 277 277 278 279 279 279 279 279 280 282 283 283 283 284 284 284 284 284 284 285 285 285 285 287
271 271 271 271 271 271 273 275 274 273 273 270 268 269 269 268 268 266 265 265 265 264 265 267 270 271 271 272 272 271 270 271 270 271 271 271 272 271 270 270 271 271 270 270 270 269 270 270 270 271 271 272 274 274 276 276 276 278 281 281 282 283 283 283 283 284 283 283 284 284 284 284 285 285
271 271 271 272 274 275 275 276 277 277 277 276 272 270 269 268 267 262 262 262 263 264 265 267 270 270 271 272 272 271 271 272 272 271 271 270 270 269 268 269 270 271 270 268 267 268 270 270 270 270 270 271 272 272 272 271 275 278 280 281 282 282 282 282 283 283 283 283 284 284 284 284 284 284
272 272 272 271 273 275 275 275 277 278 279 279 279 278 276 274 269 265 263 264 265 265 266 269 270 271 271 272 272 271 272 272 271 271 271 270 269 267 266 264 268 271 269 267 265 266 269 270 267 268 269 270 271 271 271 276 278 279 281 281 281 282 282 282 282 282 283 283 283 283 284 284 284 284
271 271 271 271 270 271 271 271 273 276 279 280 280 280 279 279 278 276 271 269 268 269 270 271 272 272 272 272 272 272 271 270 271 272 271 270 268 267 266 266 265 269 269 266 265 265 268 268 267 267 268 269 270 270 274 277 278 280 280 280 281 281 281 282 282 282 282 282 282 283 283 283 284 284
271 270 270 269 270 270 273 273 271 270 270 276 278 278 279 279 279 279 280 279 274 273 272 273 273 273 272 271 271 272 271 273 271 271 269 269 268 268 267 267 267 268 269 266 264 263 266 266 266 266 268 269 269 270 273 276 278 279 279 280 280 280 281 281 281 281 282 282 282 282 283 283 283 283
270 270 269 268 268 269 270 271 271 270 270 269 269 270 269 269 272 276 278 279 279 278 276 275 272 273 273 272 272 273 274 272 270 269 268 269 267 267 267 267 267 267 268 265 264 262 264 266 265 265 267 269 269 269 272 276 277 278 279 279 280 280 280 280 280 281 281 281 282 282 282 282 282 283
270 270 270 269 269 269 269 270 271 269 269 267 267 266 266 267 268 268 270 271 272 274 275 275 274 274 274 274 274 274 275 274 273 271 270 269 268 268 267 265 265 265 267 266 264 259 263 265 265 265 267 268 268 269 272 274 276 277 278 279 279 279 279 280 280 280 280 281 281 281 282 282 282 282
271 270 270 270 269 269 268 271 275 274 269 267 264 264 264 265 266 268 272 274 276 274 274 275 275 275 275 276 276 277 276 274 273 272 270 269 266 263 261 260 261 261 265 266 264 261 262 265 264 265 267 268 267 268 268 272 274 276 277 278 278 278 279 279 279 280 280 280 280 281 281 282 282 282
271 271 270 270 269 269 268 272 276 277 276 267 265 264 264 265 266 268 271 276 278 279 280 280 280 280 280 280 279 278 278 275 273 269 266 265 260 259 259 260 260 260 264 265 265 263 261 264 265 265 266 266 266 266 267 268 272 275 276 276 277 277 278 278 279 279 279 280 280 281 281 281 282 281
272 272 273 272 270 269 269 273 276 277 277 272 269 268 268 268 269 270 272 273 275 279 280 280 280 279 279 277 275 275 274 275 274 266 264 263 260 259 259 259 260 261 263 264 266 261 262 265 266 264 265 265 265 266 267 268 269 272 272 274 275 276 277 278 278 278 279 279 280 280 281 281 281 279
273 272 273 274 273 272 271 275 276 278 277 273 272 271 271 270 270 271 273 273 273 274 274 274 273 273 273 270 268 268 271 272 271 268 266 261 259 259 260 261 261 259 259 263 267 262 263 264 265 264 261 260 264 266 266 266 267 268 268 268 269 274 276 276 277 277 278 278 279 280 280 281 281 278
272 272 271 273 276 277 277 277 277 278 279 275 272 271 270 270 270 272 272 273 274 273 273 272 271 270 269 268 268 267 266 265 265 265 265 264 262 261 261 261 261 259 259 261 267 264 264 265 263 265 263 260 259 262 265 265 266 267 267 268 267 271 272 273 273 275 276 277 278 279 280 280 281 278
272 271 271 270 274 276 277 278 279 279 279 279 275 272 271 271 273 275 273 274 276 273 271 269 267 267 266 265 265 264 263 263 263 264 266 265 265 263 260 260 260 260 262 264 269 265 263 263 261 262 262 262 262 262 263 265 266 266 267 267 266 267 268 268 270 269 273 275 277 278 279 281 281 279
271 271 271 269 271 275 276 277 278 280 280 280 278 276 278 278 278 276 276 273 272 269 267 265 264 262 261 262 261 261 261 261 262 263 263 265 265 265 264 262 260 260 261 265 269 265 262 261 262 261 261 261 261 262 261 262 264 265 266 266 267 267 268 267 268 268 269 270 271 274 277 280 280 281
272 271 269 269 273 275 276 277 278 279 280 280 279 280 281 281 280 280 272 269 268 266 265 264 263 263 262 261 262 261 261 261 262 262 263 264 264 264 264 265 265 263 264 265 265 264 262 261 263 261 260 261 260 261 261 260 262 265 265 266 266 267 267 267 267 268 269 270 271 276 277 278 280 281
272 270 269 269 274 276 276 277 278 279 279 278 279 280 281 281 280 275 268 268 266 265 263 263 263 263 263 262 261 261 260 261 262 263 263 263 263 263 263 264 264 264 264 264 264 264 263 261 261 261 261 260 259 259 259 262 263 263 263 265 265 266 267 267 267 268 269 270 271 272 272 273 275 276
273 275 276 276 276 276 277 278 278 278 278 279 280 280 280 279 276 269 268 266 265 263 263 263 264 262 262 263 263 263 262 262 263 262 260 260 259 260 260 261 261 261 262 263 263 263 263 262 261 261 261 261 260 261 261 260 261 262 263 263 262 265 266 267 268 268 269 270 270 271 272 273 274 276
280 279 279 279 279 278 277 275 274 274 274 277 278 279 278 277 271 269 267 265 264 265 264 264 263 263 262 261 262 262 261 259 259 258 256 255 257 256 257 257 258 259 260 261 262 263 263 263 262 261 261 261 262 261 261 260 260 262 263 262 263 265 267 268 268 268 269 268 270 271 273 274 274 276
278 280 280 278 279 278 278 277 277 276 276 275 275 275 274 271 269 268 267 266 266 265 264 263 262 262 261 259 258 258 258 256 257 258 257 255 256 256 257 257 258 258 259 257 260 262 262 263 263 262 260 260 261 260 260 261 260 260 261 262 263 261 265 267 268 268 268 269 270 271 272 272 273 276
274 275 277 278 278 277 276 276 275 275 274 273 273 272 270 268 267 267 269 268 264 264 264 262 260 258 256 255 256 255 254 256 256 256 256 255 255 256 258 257 256 257 257 259 256 258 262 262 262 262 262 261 259 260 260 260 259 260 260 262 263 264 266 266 266 267 269 269 268 269 270 271 271 273
271 272 272 272 274 274 274 273 273 272 270 269 269 269 267 264 263 264 264 264 263 262 260 260 260 259 256 256 255 255 254 255 255 255 254 256 256 257 256 257 256 255 255 257 258 259 257 259 260 262 261 261 261 260 259 258 259 260 259 261 262 263 265 266 267 267 268 268 267 268 269 270 271 273
270 270 269 270 271 272 272 271 271 270 269 268 267 266 267 265 263 262 262 263 264 262 261 260 258 258 256 257 256 254 254 255 254 256 259 256 256 254 254 255 255 255 256 256 257 258 259 258 257 259 259 260 260 260 260 258 258 259 261 261 262 262 265 266 266 267 267 267 267 267 267 268 270 273
270 269 268 269 270 271 271 271 271 271 269 268 267 267 266 266 265 265 263 263 262 261 260 259 258 257 257 257 255 254 254 254 254 253 254 254 253 252 254 254 255 255 255 256 257 257 257 257 257 257 258 257 257 256 263 262 258 259 261 262 263 263 263 265 266 266 267 267 268 266 266 267 269 272
268 268 268 268 268 269 269 270 270 270 270 270 269 268 267 267 266 265 264 264 262 260 259 259 257 256 256 255 254 253 253 254 253 252 253 251 252 253 252 254 256 256 255 256 257 257 256 256 256 256 255 255 255 254 252 265 265 263 261 261 262 263 264 265 266 266 266 267 267 266 265 265 267 271
270 268 267 268 269 269 269 269 269 269 269 269 269 269 268 267 265 264 264 264 261 260 260 258 257 257 255 254 253 254 253 253 252 252 252 251 252 252 253 254 255 256 255 256 257 257 256 255 254 255 255 254 253 253 255 256 262 267 264 262 262 264 264 265 265 264 266 266 266 266 266 266 267 270
272 270 269 269 269 269 269 269 269 268 268 268 268 267 266 265 264 262 262 261 261 259 260 260 257 256 254 253 252 251 250 251 251 252 253 251 251 252 253 254 254 254 255 256 257 257 256 254 252 254 256 254 253 254 254 257 258 261 265 265 262 264 265 264 263 264 264 266 265 266 267 267 268 270
273 272 271 270 270 270 269 269 269 268 268 266 265 265 264 263 263 261 260 260 260 258 257 256 255 254 254 251 251 251 251 250 251 251 251 251 252 252 254 254 254 255 254 255 256 256 255 253 252 253 255 255 255 255 257 256 257 260 263 268 266 264 264 264 263 264 264 264 265 267 267 270 272 274
271 268 267 267 267 267 266 266 265 266 265 265 264 263 263 262 260 259 258 258 257 256 254 253 254 254 251 251 251 250 250 250 251 250 251 251 253 254 254 255 255 255 255 255 255 255 255 254 253 253 256 258 259 259 259 259 260 261 261 263 267 266 264 264 263 263 263 265 266 265 266 268 267 268
265 265 264 265 265 265 264 264 264 263 263 262 261 263 261 260 259 258 256 255 254 252 250 250 249 250 251 251 250 250 250 250 250 250 251 252 254 255 256 257 255 254 254 254 254 253 254 255 257 262 260 258 258 258 258 257 256 257 258 260 265 267 268 268 265 264 264 266 266 266 265 265 266 267
263 263 263 263 262 262 262 262 261 261 261 260 259 259 258 256 255 259 257 258 252 250 249 248 248 250 250 250 249 251 250 250 250 251 253 252 252 254 255 255 253 253 252 252 252 253 256 257 257 257 256 255 256 256 255 256 255 256 257 258 259 264 266 267 268 268 267 267 266 264 265 265 266 265
261 260 260 260 261 261 261 261 260 260 259 257 256 255 253 252 250 252 250 250 249 249 249 248 248 249 249 248 248 250 249 250 250 250 252 252 252 252 252 252 253 253 253 253 254 254 255 255 255 255 255 252 254 256 255 256 256 256 256 256 257 258 260 265 266 268 268 269 270 268 267 266 264 262
258 257 255 255 257 258 257 257 256 254 255 254 253 251 250 249 249 249 247 247 246 248 248 248 248 248 249 248 248 247 249 249 249 250 251 252 252 252 251 252 252 252 252 252 252 253 253 254 254 254 253 254 253 253 254 255 255 255 255 255 256 256 257 259 260 263 264 266 268 270 270 271 270 270
256 255 254 253 254 254 253 251 251 251 250 250 249 248 249 248 249 248 246 246 246 247 247 248 247 247 248 248 248 248 249 253 253 252 252 252 251 252 251 250 251 250 251 251 251 252 253 253 254 252 251 252 252 253 254 255 254 254 254 254 254 255 256 257 257 257 257 258 264 268 269 270 269 270
Wind_Speed
6 5 5 6 5 3 3 3 4 4 3 4 3 2 2 2 1 1 2 3 2 2 1 1 1 2 5 6 6 6 6 9 11 7 7 8 8 15 21 23 23 23 24 25 25 25 25 26 27 27 28 29 30 30 30 30 30 30 30 30 30 31 31 30 29 29 29 29 30 30 30 30 29 29
5 5 5 5 5 3 3 4 3 3 3 4 3 2 2 2 2 3 2 5 2 3 2 1 2 3 6 6 6 5 6 10 11 6 7 8 8 18 20 21 22 23 24 24 25 25 25 26 27 28 29 30 30 30 30 30 31 31 31 31 30 30 29 29 30 30 31 30 29 30 31 31 30 30
6 6 6 4 4 3 4 3 3 3 4 4 4 3 3 1 1 3 2 1 4 3 4 2 1 1 3 5 5 5 5 7 10 7 7 7 13 19 14 19 21 22 23 23 24 25 25 26 27 27 28 30 31 32 31 31 31 31 31 31 30 30 30 30 29 29 29 29 29 30 30 31 31 31
5 6 6 4 4 3 4 3 3 4 3 3 4 4 4 2 2 3 4 4 8 1 2 2 2 2 3 5 6 5 5 5 10 6 6 8 13 9 8 13 19 21 22 23 23 25 26 26 26 27 28 30 30 31 32 31 31 31 30 30 30 30 30 30 29 29 29 29 29 29 29 30 30 30
4 5 6 4 3 3 4 4 4 4 4 3 4 4 4 4 1 3 3 5 8 4 0 2 2 2 3 4 3 7 6 6 6 6 5 7 7 8 7 8 14 19 21 22 24 25 25 26 26 27 28 29 30 31 31 32 32 32 32 31 31 31 31 30 29 28 28 29 29 29 29 29 30 29
4 5 6 5 4 3 4 4 4 5 4 4 4 3 4 4 3 2 5 4 3 6 1 4 2 1 2 5 3 6 10 9 7 7 6 5 5 7 7 7 8 17 20 22 24 24 25 26 26 27 28 29 30 31 32 32 32 32 32 32 31 30 29 28 28 28 28 28 28 28 28 29 28 28
5 5 5 5 5 3 4 4 4 4 4 4 4 3 2 3 2 2 2 3 4 6 5 2 1 2 3 4 7 7 6 7 7 8 8 7 6 5 6 7 7 14 20 22 23 23 24 25 26 27 28 29 29 30 30 31 30 30 30 29 28 28 27 28 27 27 27 27 27 28 29 29 28 28
7 7 6 6 6 5 5 4 5 4 4 5 4 4 3 3 4 3 2 3 4 3 5 2 2 4 6 4 5 6 6 6 6 7 8 6 5 5 5 6 7 11 20 21 22 23 23 24 25 26 28 28 29 29 29 29 29 29 28 28 28 28 28 28 27 26 27 28 28 29 31 30 28 26
7 7 7 7 6 6 6 4 5 5 5 4 4 4 4 4 4 3 4 4 4 5 7 7 3 3 4 5 6 6 7 8 7 5 7 6 6 6 6 5 6 13 19 18 19 20 21 22 24 26 27 28 28 28 28 28 27 27 27 28 28 28 28 27 27 27 28 29 29 29 28 29 27 27
6 7 6 6 7 7 7 7 5 5 6 4 5 5 5 4 3 3 4 3 4 5 6 5 7 3 6 7 4 4 4 9 12 10 5 4 4 7 8 6 6 6 7 7 9 14 16 20 24 24 26 27 28 28 27 27 26 26 27 28 27 27 26 27 28 28 29 29 28 28 28 27 28 28
5 5 5 6 7 7 6 6 7 6 5 6 5 5 5 4 4 4 4 4 4 4 5 4 4 6 5 5 8 5 4 6 6 9 12 14 6 3 4 10 10 8 8 8 13 16 18 20 16 22 25 25 26 26 26 25 26 26 27 27 27 28 29 29 30 29 28 28 27 27 28 26 27 28
5 5 5 5 6 6 6 5 5 5 6 4 4 4 4 4 4 5 4 4 4 4 4 4 5 5 7 6 5 4 5 6 3 3 7 12 14 12 8 6 10 11 9 9 8 12 14 12 15 21 21 21 23 25 24 25 25 27 26 28 30 30 29 29 28 29 29 27 26 26 27 27 26 27
4 4 4 5 4 5 6 9 7 7 6 6 5 5 4 5 5 4 4 4 3 3 3 4 5 6 7 7 7 7 6 6 8 8 8 9 10 10 12 10 6 5 8 10 10 9 11 12 10 10 11 12 18 17 22 20 24 26 27 28 28 28 29 29 29 28 28 27 27 27 26 26 26 26
5 5 5 5 8 9 9 10 11 11 12 11 8 7 6 5 5 5 5 5 4 3 4 4 4 7 7 7 7 7 7 6 8 9 9 10 11 10 11 10 1 4 7 11 14 11 8 9 10 9 12 12 12 10 11 13 19 25 28 28 28 28 28 28 28 27 27 27 27 26 26 26 26 25
6 5 5 4 6 7 9 9 12 12 13 14 14 14 12 10 9 6 6 5 4 4 4 5 5 7 8 8 6 7 8 6 8 8 8 10 11 10 10 13 10 3 9 10 13 13 9 8 11 11 11 12 11 10 11 23 27 27 28 28 28 27 27 27 27 27 27 26 26 26 26 26 26 25
5 5 5 4 4 5 6 4 5 8 13 15 15 15 15 15 15 13 10 7 5 5 5 6 7 6 7 9 8 7 5 8 9 7 8 9 10 10 10 9 11 8 10 12 13 15 8 8 9 11 11 11 10 12 20 26 26 27 28 28 27 27 27 28 27 27 27 26 26 26 26 26 26 25
5 5 5 5 5 5 9 7 5 5 5 9 13 15 16 16 16 16 17 15 10 7 8 8 7 7 4 6 6 4 8 10 9 6 6 8 9 9 10 10 11 12 9 10 11 13 11 9 9 12 12 11 11 13 17 25 27 28 27 26 27 28 28 28 28 27 27 26 26 27 26 26 25 25
6 6 6 6 6 5 5 5 7 6 7 7 6 6 5 5 7 12 16 17 18 14 8 6 7 5 4 7 4 6 9 7 5 5 6 7 9 9 10 11 11 10 6 7 10 13 9 6 9 12 12 10 12 10 17 26 27 26 25 25 27 28 28 28 28 27 27 28 27 27 26 26 25 25
6 5 6 6 7 5 5 6 7 7 8 5 6 6 7 6 7 7 7 7 5 6 6 7 6 6 6 6 7 10 6 5 5 4 7 9 10 9 8 8 7 7 5 7 6 8 11 8 10 11 11 12 12 10 16 23 24 23 24 27 28 27 27 27 27 27 28 28 27 26 25 25 25 24
6 6 7 7 7 6 6 9 15 12 7 6 7 9 7 7 6 7 8 11 11 9 8 8 8 7 6 9 8 7 6 6 5 5 4 3 5 7 9 10 4 3 4 4 6 7 10 7 10 13 11 11 13 13 11 16 21 22 25 27 26 27 27 27 27 27 28 27 26 25 25 24 24 23
6 7 7 7 6 6 7 10 14 16 14 7 9 8 8 8 7 8 6 13 17 19 19 18 18 17 17 18 15 13 15 11 9 5 5 7 2 5 9 12 6 5 3 5 5 6 11 8 9 13 11 11 14 13 10 9 14 23 27 25 26 26 26 26 27 28 27 26 25 24 24 24 23 24
7 8 13 10 8 8 8 12 15 16 14 9 10 9 9 9 10 10 8 7 9 17 19 19 18 17 14 7 6 8 9 13 10 2 8 4 1 6 4 9 9 9 6 7 3 3 7 10 9 13 11 12 7 9 9 9 13 21 19 24 25 24 25 27 28 27 26 25 25 24 25 24 22 14
7 7 10 17 14 11 10 16 16 18 15 10 10 10 9 10 12 10 7 8 8 7 7 6 3 1 2 2 1 4 8 10 8 3 5 1 3 7 7 7 8 10 3 3 2 6 8 10 9 9 12 12 10 5 6 10 11 10 11 12 13 21 26 27 26 26 26 25 25 25 25 24 21 12
7 8 8 11 18 19 18 17 18 18 20 13 10 9 10 10 14 6 7 9 8 8 9 7 4 4 2 1 2 4 5 5 3 4 4 4 4 6 6 6 5 6 4 2 6 8 9 8 9 7 8 9 11 4 9 10 9 10 10 11 9 18 21 22 19 25 25 25 25 24 24 24 23 12
9 8 8 7 14 19 19 19 19 20 21 19 11 11 11 12 9 7 8 9 14 8 6 5 5 3 2 2 2 2 3 4 3 3 5 5 5 6 5 7 7 9 10 10 12 6 7 6 10 9 7 7 11 15 12 11 10 9 10 10 11 12 11 12 10 13 18 24 23 25 23 24 24 17
9 10 8 7 11 18 19 19 20 21 21 22 13 12 18 19 20 14 10 7 6 5 6 5 5 4 4 4 4 4 5 5 5 4 5 6 5 5 6 6 7 9 10 6 11 8 8 9 7 8 9 9 12 10 16 12 9 9 10 11 9 8 9 10 11 12 12 11 11 15 19 24 22 22
10 8 7 7 13 18 19 20 20 20 22 19 16 22 22 22 22 18 6 6 6 6 6 5 6 5 5 5 6 4 5 3 3 5 5 6 6 6 6 7 8 10 11 9 7 8 7 9 7 7 9 8 11 14 12 13 13 9 9 10 10 8 8 8 10 11 11 13 13 22 20 19 21 23
8 8 8 8 14 17 19 20 20 20 19 15 20 22 23 23 20 9 6 6 7 6 6 6 6 6 5 4 5 5 4 3 4 5 5 5 5 6 6 7 8 9 10 9 9 8 8 9 9 7 8 9 9 10 13 12 11 11 13 12 13 11 8 9 10 10 11 11 12 11 11 12 12 13
10 10 13 15 17 17 19 21 20 18 20 22 22 23 22 19 10 5 7 7 6 6 7 7 6 5 5 5 5 2 2 2 3 3 3 3 4 5 6 7 7 9 8 7 8 9 8 7 9 7 7 8 9 11 12 14 12 13 13 14 13 12 12 9 9 11 12 12 12 12 12 12 12 10
15 18 20 22 21 20 18 13 11 10 10 17 21 22 21 11 5 6 7 6 7 8 6 6 6 5 3 2 2 1 1 1 4 3 3 3 5 4 4 5 6 6 7 7 7 8 8 7 7 7 8 9 9 11 12 12 13 11 11 11 12 14 9 9 11 11 11 12 12 12 11 11 12 11
13 15 14 12 16 14 20 20 18 16 15 13 13 10 9 5 6 6 7 8 8 6 5 5 5 3 2 1 1 2 2 4 3 2 3 3 5 4 4 4 8 8 6 3 5 6 7 7 7 7 8 9 10 11 11 9 12 12 11 10 9 10 12 13 11 11 11 12 12 11 10 11 11 11
10 10 10 13 10 10 10 11 10 9 9 9 8 7 6 5 3 5 6 4 3 4 4 2 2 1 2 2 3 2 2 4 4 2 3 2 4 3 4 3 6 5 8 7 4 5 5 6 6 6 7 9 11 13 11 9 10 10 10 9 9 10 9 10 13 12 12 13 12 11 10 10 11 11
9 8 9 9 10 9 9 9 9 8 6 5 5 6 4 4 3 4 5 6 6 5 4 5 5 5 4 3 2 2 2 4 4 1 2 4 4 4 3 5 6 6 8 9 8 6 4 5 5 6 8 9 10 11 10 11 10 6 6 9 9 10 9 10 12 13 13 12 12 11 10 9 10 11
9 9 8 9 9 10 9 9 9 6 5 5 4 4 4 4 4 3 4 5 4 4 5 4 4 4 3 4 3 4 4 4 2 3 4 3 3 3 3 5 6 5 5 7 8 7 6 5 4 6 7 9 10 10 10 9 12 11 8 8 8 10 10 11 12 13 12 11 12 12 11 10 9 9
9 7 8 8 7 8 7 8 8 5 5 5 5 5 5 5 5 5 5 6 4 3 3 3 3 2 4 5 4 5 4 3 3 3 3 3 4 4 4 5 6 5 5 7 8 7 5 7 7 10 9 6 7 4 11 12 7 9 8 8 7 9 10 10 11 11 13 11 10 11 11 9 8 8
7 5 6 7 6 5 7 7 5 6 6 6 5 4 5 6 6 6 7 3 4 4 4 4 4 4 5 5 4 4 3 4 3 3 4 3 4 4 4 5 5 6 5 6 7 6 4 5 5 7 10 11 10 9 4 1 2 5 8 10 9 10 11 11 10 10 10 10 10 9 9 10 10 10
6 5 5 6 6 5 6 6 6 6 6 6 6 6 6 6 3 4 2 3 4 4 4 4 5 5 5 4 5 4 5 4 4 3 4 4 3 4 4 5 5 5 5 6 5 6 3 4 4 4 7 9 10 11 11 2 7 9 6 8 11 10 11 10 11 10 9 9 10 9 9 10 10 10
7 6 7 8 8 7 7 7 6 6 6 6 6 5 3 2 3 3 3 3 3 3 3 4 4 3 4 4 3 5 3 4 3 5 5 3 3 4 4 5 6 5 6 6 5 4 3 3 3 3 3 6 10 11 14 9 8 6 7 9 11 12 11 10 9 9 10 9 9 10 9 10 10 9
6 7 8 8 8 7 7 7 6 6 4 3 3 3 3 2 2 3 3 3 3 3 3 4 4 4 4 4 5 4 4 4 5 5 4 4 4 4 5 5 5 5 5 6 4 4 4 4 3 2 3 5 7 10 10 11 12 13 17 22 11 9 9 9 10 10 10 10 10 9 9 8 9 14
2 3 3 3 3 2 1 2 2 2 3 3 3 3 3 3 3 3 3 4 4 3 4 4 3 2 2 5 4 3 3 5 6 5 5 5 4 4 5 5 5 5 5 5 6 6 5 5 4 3 4 6 8 9 10 11 12 11 11 13 15 11 10 10 10 10 10 10 10 9 9 8 6 6
3 3 3 2 2 2 2 2 2 2 2 2 2 3 3 3 4 4 4 4 5 3 3 3 3 3 5 5 4 4 5 4 5 5 4 4 5 5 7 6 4 4 5 6 5 6 7 6 5 13 11 8 9 9 7 6 8 9 10 11 15 19 18 15 10 10 9 10 8 8 9 9 8 8
2 2 1 2 2 2 2 2 1 2 2 2 2 3 2 2 3 3 3 3 3 3 3 3 4 4 4 5 4 4 5 5 4 5 5 5 5 4 6 4 5 5 4 6 6 7 7 6 7 7 6 6 5 5 7 7 9 10 10 10 11 14 17 18 18 15 10 8 8 9 9 7 6 6
1 1 0 0 1 0 1 2 2 2 3 2 3 3 3 3 2 2 2 2 2 3 5 4 5 5 5 4 4 5 4 5 5 5 4 4 4 5 5 5 4 4 4 6 6 7 8 7 5 6 6 4 3 3 6 8 8 8 9 10 11 10 12 15 15 16 14 13 13 10 8 8 8 8
1 1 1 1 1 0 0 1 2 2 3 3 3 3 4 4 4 5 3 3 3 5 5 4 3 4 5 4 3 3 5 5 4 5 5 4 4 4 4 4 3 4 5 5 6 7 6 6 5 5 6 6 4 4 6 7 8 8 7 9 9 9 11 11 12 11 10 10 15 18 19 16 13 12
0 0 1 0 1 1 1 1 2 3 3 4 3 3 3 2 3 2 3 4 4 4 3 5 4 4 5 4 3 5 5 5 5 5 4 5 4 4 2 3 4 4 5 5 5 7 6 6 6 4 4 5 3 4 6 6 8 8 8 8 10 9 8 8 10 11 11 10 13 21 20 20 19 18
Wind_Direction
121 115 117 116 116 107 98 90 91 92 86 100 110 117 153 158 143 278 312 271 217 303 150 321 277 81 15 7 358 353 341 332 337 334 331 325 322 320 327 330 329 328 327 329 331 331 331 331 330 328 326 324 321 319 318 317 317 316 315 314 314 313 312 312 313 314 316 315 316 315 314 314 310 307
117 113 103 108 109 106 99 101 95 90 103 101 95 102 84 117 159 190 200 275 221 250 309 162 289 345 12 352 342 340 322 320 331 321 319 319 310 317 326 324 323 322 324 328 330 331 332 332 330 328 326 323 320 320 319 319 318 316 316 315 313 312 312 312 314 315 314 313 313 313 313 312 310 308
120 120 114 113 114 114 107 100 90 92 99 100 105 90 86 75 137 165 161 238 289 141 243 301 81 25 340 338 316 310 301 308 320 315 307 305 307 316 314 314 315 318 321 326 330 332 332 330 329 327 325 323 323 322 322 321 319 317 316 315 314 312 312 311 312 312 312 314 313 311 310 311 309 306
129 126 127 133 130 128 117 112 110 104 98 117 109 111 114 104 121 130 175 216 255 245 211 274 317 353 326 312 303 304 299 298 310 297 299 297 307 305 300 302 307 312 318 326 330 331 331 328 327 326 324 323 322 319 319 318 316 315 314 314 315 314 314 315 313 312 312 311 311 310 308 308 306 302
134 133 132 137 138 144 137 135 124 117 124 115 118 133 132 129 130 144 189 218 275 293 244 124 261 310 313 310 298 307 309 309 306 302 291 291 292 296 292 296 300 307 315 325 329 331 330 327 326 326 326 324 321 320 318 318 317 315 314 313 313 313 313 313 314 314 314 311 310 309 308 304 302 302
147 141 138 147 155 169 146 142 142 148 145 147 143 161 141 156 166 213 168 246 259 276 269 299 298 259 299 298 305 319 320 319 314 310 307 292 282 288 292 294 295 304 317 324 331 331 328 326 327 327 327 324 321 319 319 318 317 316 316 316 315 316 315 315 315 314 312 311 309 306 303 302 303 303
150 143 150 165 165 162 144 155 156 152 165 165 165 170 156 161 207 204 193 162 248 277 289 203 263 287 310 304 314 315 300 296 303 308 313 310 297 279 283 287 289 306 319 328 332 330 326 327 330 330 327 322 321 321 321 320 319 318 317 317 317 318 317 315 314 311 310 307 305 304 301 302 303 305
162 161 159 178 170 164 157 166 162 172 168 177 175 170 193 183 204 205 200 220 212 266 295 268 5 307 319 304 300 293 293 297 310 311 302 293 288 285 284 287 292 309 323 331 332 327 326 329 330 328 323 320 321 320 320 320 320 318 318 320 321 319 316 314 312 309 307 305 306 305 305 309 305 305
166 171 178 177 172 168 166 180 177 178 181 185 176 186 197 196 207 205 208 221 243 251 269 289 284 286 294 292 295 299 318 318 314 300 294 307 308 305 296 285 300 317 326 330 328 324 325 328 329 325 320 320 321 320 321 321 321 321 321 320 319 316 314 312 310 309 309 311 314 313 314 315 316 311
178 177 182 179 176 176 182 191 185 183 187 182 190 198 207 202 202 209 225 227 228 247 260 270 299 316 320 316 308 309 324 330 322 319 299 281 288 308 313 314 318 318 325 330 324 325 325 327 328 323 318 319 320 320 320 321 322 322 320 319 316 314 313 312 312 312 311 311 312 315 313 313 317 317
180 182 183 184 186 190 193 186 189 184 189 188 203 203 201 206 196 217 224 226 238 244 266 273 266 293 296 303 312 326 337 307 297 316 328 322 313 261 317 326 325 321 320 324 324 319 319 323 325 318 316 317 318 320 321 322 322 321 319 317 316 317 316 315 313 312 313 315 316 316 318 316 314 317
186 188 193 193 197 198 197 190 190 180 190 185 205 209 193 206 201 217 224 231 233 245 262 273 291 292 304 303 289 305 320 308 293 331 324 311 318 325 332 337 325 320 323 328 329 322 320 324 321 316 312 314 318 321 322 322 321 319 317 316 317 317 317 317 318 318 318 317 315 315 316 318 316 313
190 198 199 203 201 204 204 204 195 193 185 176 203 216 192 206 204 217 222 221 231 257 267 277 280 295 303 304 312 319 322 321 321 323 313 298 309 317 316 320 315 305 324 323 320 320 322 321 321 313 311 316 322 320 322 321 318 317 320 320 318 318 320 321 319 318 317 317 318 318 317 315 315 314
204 206 204 209 208 210 212 217 218 215 214 208 194 197 191 198 200 208 209 224 229 236 253 261 280 292 289 300 308 306 302 312 317 308 313 313 316 316 306 298 204 333 347 330 322 319 320 315 313 318 311 313 320 317 321 313 316 319 320 320 321 322 322 320 320 319 318 318 318 316 315 314 313 311
205 209 210 210 220 220 221 222 224 224 224 226 221 214 205 195 188 192 204 219 205 210 244 257 256 261 281 296 303 295 305 311 309 309 312 316 317 319 326 320 323 93 3 330 318 311 322 324 320 314 306 310 314 317 309 316 319 319 321 324 324 323 322 322 321 319 319 318 316 315 314 313 312 312
202 209 214 220 210 224 222 211 227 232 231 231 233 236 235 231 219 204 190 201 213 218 238 249 247 267 277 293 298 299 312 307 305 299 309 312 310 308 306 301 300 324 358 328 314 304 318 323 312 306 306 308 309 310 314 318 319 321 323 323 323 324 325 324 324 323 322 321 319 318 316 315 314 315
207 202 217 229 223 219 222 219 212 217 241 244 237 237 239 238 237 237 233 225 215 210 231 242 251 254 275 283 280 292 300 301 295 307 307 308 299 294 291 292 302 310 337 314 302 298 310 322 314 305 304 308 309 312 315 316 320 321 321 323 326 327 327 327 326 325 323 323 322 321 319 317 315 313
206 205 211 222 232 213 210 215 209 211 218 224 237 246 254 254 259 247 241 242 242 240 240 249 257 256 250 265 278 291 292 290 294 304 302 307 294 288 284 295 293 298 323 299 306 298 304 318 314 303 304 311 307 307 310 317 319 319 321 325 327 326 326 327 326 325 325 324 322 320 318 317 314 312
203 207 212 222 228 218 213 217 209 205 212 210 223 232 239 239 235 239 243 243 236 239 243 249 257 259 232 238 265 280 269 272 294 306 302 301 294 295 296 282 267 282 276 283 297 282 304 316 307 298 306 312 305 305 312 313 316 318 322 325 325 326 327 326 325 326 325 324 322 320 318 316 314 313
203 202 212 219 226 220 220 224 226 220 202 210 217 231 241 243 244 241 234 236 237 231 228 229 238 238 223 233 247 256 267 304 316 305 306 299 303 318 304 292 294 259 256 259 280 282 292 305 302 301 306 308 304 309 307 310 314 319 324 324 325 325 325 324 325 325 325 323 322 320 319 317 316 317
204 202 207 216 220 223 225 223 229 230 220 205 218 225 233 235 239 245 238 247 246 244 243 241 241 250 257 266 280 288 293 298 309 326 308 283 343 323 306 299 304 283 318 279 255 273 289 307 311 303 307 309 303 304 304 305 312 321 321 321 323 325 324 324 325 325 324 324 323 322 322 322 321 322
209 210 215 215 218 223 228 227 229 229 227 217 212 217 227 234 239 243 232 230 239 245 246 246 250 262 272 290 319 314 300 294 302 317 280 286 1 277 260 283 301 306 300 280 253 271 276 305 312 307 305 298 273 292 296 306 320 319 318 319 322 324 325 326 325 325 325 325 325 326 326 325 327 325
210 216 220 228 228 226 228 230 229 229 226 227 220 218 223 234 239 236 218 225 220 225 234 247 239 250 142 76 40 283 291 301 310 284 266 245 230 265 268 277 305 309 295 223 21 318 306 316 313 327 324 311 299 250 302 317 311 312 312 315 317 324 327 326 325 324 325 327 328 328 328 328 328 320
226 218 216 227 231 234 233 230 230 231 230 227 223 216 226 233 244 226 224 223 216 218 212 218 196 206 170 179 251 262 276 286 260 246 232 227 218 240 257 264 260 255 280 247 343 305 296 302 303 323 306 305 313 329 326 307 316 312 310 313 317 325 327 325 322 321 324 326 327 328 329 327 329 329
230 227 221 216 225 231 235 236 236 235 234 235 226 218 223 230 240 237 232 226 226 213 197 182 179 193 201 219 224 257 260 268 241 230 256 234 241 243 241 262 258 257 265 279 301 303 298 320 300 310 295 285 279 301 307 307 305 307 307 314 318 322 321 317 316 317 320 323 324 328 328 331 334 335
234 232 222 215 218 226 233 237 241 241 240 237 236 229 231 237 241 243 236 213 194 171 189 177 190 209 229 242 244 257 260 236 247 238 239 245 243 241 233 233 251 268 274 284 303 302 298 292 293 300 296 298 291 295 305 306 303 305 314 308 308 309 314 313 317 317 317 316 318 324 329 333 333 336
236 235 223 219 215 226 231 235 238 241 242 242 242 243 243 243 243 245 207 163 173 180 186 189 206 216 215 240 248 244 255 230 224 232 237 241 245 251 249 253 254 260 276 289 286 286 279 279 287 287 293 293 291 302 296 304 310 318 305 310 309 316 311 312 314 312 316 319 317 324 326 325 332 334
239 231 223 216 217 225 233 236 239 244 245 243 245 246 246 246 248 236 156 174 184 183 188 202 218 222 214 230 255 241 224 210 230 242 250 256 259 261 264 264 265 267 275 280 284 276 272 273 282 274 277 289 293 296 299 296 293 306 309 312 306 308 316 317 310 313 317 317 317 322 324 326 323 324
238 234 228 225 225 231 238 238 245 247 247 246 246 246 246 246 237 177 172 183 171 188 204 211 224 229 221 229 244 230 199 226 255 265 274 279 276 269 268 264 265 270 269 274 272 270 267 265 275 280 278 279 281 285 290 291 301 302 308 313 311 315 322 314 316 319 319 323 324 324 324 324 320 316
233 237 239 239 236 235 234 233 232 233 233 242 247 248 248 241 202 169 182 176 189 206 206 209 220 225 202 182 198 201 220 228 257 261 266 291 291 289 288 293 277 257 253 254 256 262 265 268 271 278 281 280 279 284 287 295 295 296 302 299 298 301 299 320 323 321 322 323 324 321 321 321 321 316
265 258 246 232 232 228 228 226 226 229 234 240 243 241 240 212 183 184 183 192 196 204 199 215 219 212 159 91 122 233 220 254 262 235 253 264 270 291 290 289 291 299 280 238 245 249 260 267 270 279 287 288 287 276 282 283 284 291 292 294 303 301 314 318 320 323 323 320 320 318 317 318 314 310
253 256 257 252 243 235 235 233 230 229 220 223 225 223 215 195 183 190 188 168 168 190 193 179 125 135 155 208 215 224 227 251 264 238 240 233 268 261 277 285 283 289 302 299 273 252 251 257 265 273 274 282 285 290 292 281 274 277 284 289 292 294 302 310 319 322 322 321 317 317 317 319 314 308
256 255 252 246 245 235 234 231 231 227 218 224 221 220 202 157 153 175 174 196 204 200 179 205 210 225 188 227 202 221 250 253 258 238 238 263 242 262 230 254 274 294 301 304 310 295 263 255 256 265 278 279 270 272 280 293 285 267 276 291 301 302 310 318 319 318 324 322 314 312 314 317 308 305
249 246 243 244 239 241 239 238 238 232 217 219 212 221 208 197 194 182 210 220 221 190 206 207 195 220 198 236 221 229 241 273 263 252 248 256 250 256 254 267 274 271 272 285 295 300 305 289 287 275 265 265 261 255 251 248 266 287 291 295 300 303 310 316 315 318 322 319 315 312 313 316 310 303
243 248 246 249 243 247 247 246 246 222 212 216 214 218 207 214 208 213 214 224 215 194 185 194 200 209 206 238 222 225 240 249 270 259 250 235 241 232 253 263 278 279 280 289 294 300 306 320 333 326 319 311 310 283 240 226 245 274 292 297 300 305 308 311 314 319 319 314 318 312 305 304 313 317
238 244 258 264 255 249 247 251 250 244 240 236 221 210 209 220 206 211 227 194 146 177 184 198 204 204 218 224 223 219 231 240 247 245 262 251 250 257 241 249 262 273 269 272 286 292 310 324 348 334 330 327 331 323 337 160 236 291 309 305 308 307 307 308 310 310 315 316 319 314 304 309 313 318
239 216 236 255 263 245 244 244 237 240 239 239 238 232 235 238 193 185 183 137 155 177 198 173 203 209 215 213 214 219 226 234 252 256 259 259 258 260 275 275 261 267 279 273 271 285 319 323 345 331 321 323 320 312 293 268 283 292 293 302 304 308 310 314 315 309 312 319 316 310 305 305 303 309
234 217 215 229 234 236 236 234 227 228 225 226 228 227 212 152 100 117 118 141 172 173 200 199 202 203 208 200 214 239 231 238 244 257 259 254 262 272 253 270 279 276 272 277 275 283 307 300 308 305 305 307 311 309 310 317 321 295 283 306 304 309 316 312 309 313 316 321 312 307 305 299 296 300
227 227 226 225 228 224 228 229 222 225 211 191 187 189 171 138 140 120 147 166 171 179 190 197 213 208 210 218 217 222 233 247 250 250 253 250 242 252 272 269 280 277 272 282 283 293 306 298 285 268 260 283 288 292 296 304 301 306 306 306 307 304 308 311 310 313 313 314 309 303 290 278 294 318
228 68 50 42 38 37 53 65 93 131 147 170 174 164 161 173 158 160 164 181 190 202 189 208 219 211 220 220 223 216 226 231 242 253 254 255 256 255 261 261 260 276 287 292 301 299 300 290 284 260 274 279 280 281 287 284 281 283 286 298 309 317 315 317 315 314 308 309 303 294 307 327 320 322
60 76 65 56 63 63 77 75 86 95 112 116 129 159 153 158 160 185 183 190 185 178 199 225 223 217 226 220 216 197 227 245 235 245 248 248 253 257 266 277 283 291 296 290 289 294 285 285 285 305 304 290 286 287 286 286 300 306 309 309 317 323 327 327 317 310 303 302 302 318 329 330 329 331
66 83 94 79 81 77 94 112 105 109 130 137 135 146 137 152 188 196 190 210 175 188 200 214 217 215 228 218 216 212 218 234 239 246 246 245 252 265 274 276 278 276 276 279 287 283 289 304 305 303 292 296 298 311 307 304 302 306 307 309 309 318 324 327 329 324 320 319 331 338 335 328 336 326
30 65 96 86 62 167 123 148 150 159 157 145 159 145 146 168 190 234 213 221 215 193 208 222 213 209 221 217 211 207 214 240 235 243 245 251 250 264 265 260 254 267 270 279 284 287 295 300 304 303 297 293 279 286 294 299 298 299 306 311 314 320 317 324 331 333 333 334 350 356 349 342 335 335
16 21 27 12 331 346 312 156 162 156 150 164 163 156 165 170 199 218 208 210 196 214 212 214 217 210 222 224 216 216 223 232 236 237 246 245 248 247 253 264 285 293 288 287 296 295 294 296 294 288 295 296 296 306 297 305 304 304 298 299 305 318 322 326 328 333 336 336 348 356 355 355 352 342
298 232 255 245 212 253 199 175 150 154 142 143 146 168 180 175 208 217 209 203 208 214 208 216 215 217 215 212 193 226 234 233 234 234 238 245 247 257 275 283 285 287 285 285 296 298 301 303 298 288 267 274 283 282 288 290 296 305 307 314 312 317 319 330 336 335 333 324 336 349 350 350 351 350